Starlink 32862

operational
NORAD ID: 62864 Int'l Des: 2025-022 Owner: SPXS Country: US Constellation: starlink
LEOCIRCULAR

About Starlink 32862

Description loading...

Live Position

Loading 3D Globe...

Upcoming Passes

Altitude History

Altitude vs Time

uPlot chart will show altitude changes over time

Two-Line Element Set

1 62864U 25022L 25354.63744404 .00021007 00000-0 71929-3 0 9999
2 62864 53.1590 137.0364 0001185 87.8795 272.2341 15.30203367 49794
Epoch: Dec 20, 2025 • Age: 10 hours

Current Status

Altitude 475.8 km
Velocity 7.63 km/s
Sub-Earth Point 25.77°N, 176.03°W
Launch Date Feb 2, 2025
Age 0.8 years
Type internet

Technical Details

Classification Payload
Mass 730.00 kg
Dry Mass 700.00 kg
Total Mass 730.00 kg
Length 0.30 m
Diameter 4.10 m
Span 29.00 m
Shape Box + pan
Manufacturer SPXS
Bus Type Starlink V2M
Phase Status In Orbit
Owner/State SPXS/US

Large Constellations

Loading constellations...